Baku airport (UBBB)

baku-airport

Baku International Airport

Heydar Aliyev International Airport is the main international airport in Azerbaijan located 20 km (12 mi) northeast of the capital Baku. The airport is the home of Azerbaijan Airlines, the national flag carrier. It is the busiest airport in Azerbaijan and of the Caucasus.

ICAO: UBBB, IATA: GYD

Charts: Jeppesen

Sceneries: freeware demos w. reduced resolution

 fs9     fsx     Prepar

payware: http://www.drzewiecki-design.net/

METAR:

UBBB 171230Z 04005KT 9999 FEW030 28/18 Q1007 R88/CLRD// NOSIG

TAF UBBB 171105Z 1712/1812 30008KT 9999 FEW025 SCT100 TX27/1712Z TN20/1802Z TEMPO 1712/1718 34010KT FEW050CB BKN050 BECMG 1718/1720 34018G28KT FEW040CB BKN040